Monterey, CA

2:14 AM PST on February 13, 2016 (GMT -0800)
Monterey Peninsula

Weather History for KMRY - May, 2014

Change the Weather History Date:

Monday, May 26, 2014

  Actual Average Record
Temperature  
Mean Temperature 61 °F 58 °F  
Max Temperature 69 °F 64 °F 69 °F (2014)
Min Temperature 53 °F 51 °F 46 °F (1998)
Degree Days  
Heating Degree Days 4    
Month to date heating degree days 123  
Since 1 July heating degree days 2404  
Cooling Degree Days 0    
Month to date cooling degree days 29  
Year to date cooling degree days 42  
Growing Degree Days 11 (Base 50)    
Moisture  
Dew Point 49 °F    
Average Humidity 65    
Maximum Humidity 77    
Minimum Humidity 53    
Precipitation  
Precipitation 0.00 in - 0.06 in (2012)
Month to date precipitation 0.09  
Year to date precipitation 7.38  
Since 1 July precipitation 8.66  
Sea Level Pressure  
Sea Level Pressure 30.06 in    
Wind  
Wind Speed 7 mph (WSW)    
Max Wind Speed 14 mph    
Max Gust Speed 18 mph    
Visibility 10 miles    
Events      
T = Trace of Precipitation, MM = Missing Value Source: NWS Daily Summary

Daily Weather History Graph

Daily Weather History Graph

Search for Another Location

Airport or City:

Trip Planner

Search our weather history database for the weather conditions in past years. The results will help you decide how hot, cold, wet, or windy it might be!

Date:

Astronomy

May. 26, 2014 Rise Set
Actual Time 5:52 AM PDT 8:16 PM PDT
Civil Twilight 5:23 AM PDT 8:46 PM PDT
Nautical Twilight 4:46 AM PDT 9:22 PM PDT
Astronomical Twilight 4:06 AM PDT 10:02 PM PDT
Moon 4:34 AM PDT (5/26) 6:27 PM PDT (5/26)
Length of Visible Light 15h 22m
Length of Day
14h 23m
Waning Crescent, 4% of the Moon is Illuminated
May 26
Waning Crescent
May 28
New
Jun 5
First Quarter
Jun 12
Full
Jun 19
Last Quarter

Hourly Weather History & Observations

Time (PDT) Temp. Dew Point Humidity Pressure Visibility Wind Dir Wind Speed Gust Speed Precip Events Conditions
12:54 AM 55.0 °F 46.0 °F 72% 30.04 in 10.0 mi South 5.8 mph - N/A   Clear
1:54 AM 54.0 °F 46.9 °F 77% 30.04 in 10.0 mi South 4.6 mph - N/A   Clear
2:54 AM 54.0 °F 46.9 °F 77% 30.03 in 10.0 mi South 5.8 mph - N/A   Clear
3:54 AM 54.0 °F 46.9 °F 77% 30.03 in 10.0 mi South 8.1 mph - N/A   Clear
4:54 AM 53.1 °F 46.9 °F 80% 30.04 in 10.0 mi South 5.8 mph - N/A   Clear
5:54 AM 53.1 °F 46.9 °F 80% 30.04 in 10.0 mi South 5.8 mph - N/A   Clear
6:20 AM 53.6 °F 48.2 °F 82% 30.01 in 10.0 mi South 4.6 mph - N/A   Partly Cloudy
6:54 AM 55.0 °F 48.9 °F 80% 30.05 in 10.0 mi South 4.6 mph - N/A   Clear
8:54 AM 60.1 °F 50.0 °F 69% 30.07 in 9.0 mi Variable 5.8 mph - N/A   Clear
9:54 AM 60.1 °F 50.0 °F 69% 30.08 in 9.0 mi WNW 10.4 mph - N/A   Clear
10:54 AM 61.0 °F 51.1 °F 70% 30.08 in 10.0 mi WNW 6.9 mph - N/A   Clear
11:54 AM 61.0 °F 51.1 °F 70% 30.08 in 10.0 mi WNW 9.2 mph - N/A   Clear
12:54 PM 64.0 °F 51.1 °F 63% 30.08 in 10.0 mi WNW 8.1 mph - N/A   Clear
1:54 PM 64.9 °F 51.1 °F 61% 30.07 in 10.0 mi WNW 11.5 mph - N/A   Clear
2:54 PM 69.1 °F 51.1 °F 53% 30.07 in 10.0 mi West 9.2 mph - N/A   Clear
3:54 PM 66.9 °F 51.1 °F 57% 30.07 in 10.0 mi West 8.1 mph - N/A   Clear
4:54 PM 66.9 °F 50.0 °F 54% 30.06 in 10.0 mi West 9.2 mph - N/A   Clear
5:54 PM 66.0 °F 50.0 °F 56% 30.05 in 10.0 mi West 6.9 mph - N/A   Clear
6:54 PM 64.9 °F 48.9 °F 56% 30.05 in 10.0 mi West 9.2 mph - N/A   Clear
7:54 PM 63.0 °F 48.0 °F 58% 30.06 in 10.0 mi WSW 4.6 mph - N/A   Clear
8:54 PM 60.1 °F 48.9 °F 67% 30.08 in 10.0 mi WSW 5.8 mph - N/A   Clear
9:54 PM 60.1 °F 48.0 °F 64% 30.10 in 10.0 mi WSW 4.6 mph - N/A   Clear
11:54 PM 57.0 °F 45.0 °F 64% 30.10 in 10.0 mi SW 4.6 mph - N/A   Clear